This is the latest recevied weather packets stored in our database for station/object KY4LEX. If no packets are shown the sender has not sent any weather packets the latest 10 day(s).
| Time | Temp. | Humidity | Pressure | Rain* | Wind** | Luminosity | Snow |
|---|---|---|---|---|---|---|---|
| 1778097448 | 16.67° C | 62% | 1018.1 hPa | 0 mm | - | 218 W/m² | - |
| 1778097145 | 16.67° C | 61% | 1018.3 hPa | 0 mm | - | 224 W/m² | - |
| 1778096842 | 16.67° C | 63% | 1018.2 hPa | 0 mm | - | 261 W/m² | - |
| 1778096538 | 16.67° C | 62% | 1018.2 hPa | 0 mm | - | 194 W/m² | - |
| 1778096236 | 16.67° C | 61% | 1018.6 hPa | 0 mm | - | 176 W/m² | - |
| 1778095933 | 16.67° C | 61% | 1018.4 hPa | 0 mm | - | 180 W/m² | - |
| 1778095629 | 17.22° C | 59% | 1018.1 hPa | 0 mm | - | 215 W/m² | - |
| 1778095326 | 17.22° C | 61% | 1018.2 hPa | 0 mm | - | 237 W/m² | - |
| 1778095023 | 17.78° C | 60% | 1017.8 hPa | 0 mm | - | 280 W/m² | - |
| 1778094719 | 17.78° C | 64% | 1017.8 hPa | 0 mm | - | 250 W/m² | - |
| 1778094417 | 17.22° C | 61% | 1017.8 hPa | 0 mm | - | 291 W/m² | - |
| 1778094113 | 17.22° C | 60% | 1018.2 hPa | 0 mm | - | 328 W/m² | - |
| 1778093810 | 17.22° C | 62% | 1017.7 hPa | 0 mm | - | 321 W/m² | - |
| 1778093506 | 16.67° C | 62% | 1018 hPa | 0 mm | - | 261 W/m² | - |
| 1778093204 | 17.22° C | 62% | 1017.6 hPa | 0 mm | - | 224 W/m² | - |
| 1778092901 | 17.22° C | 64% | 1018.1 hPa | 0 mm | - | 195 W/m² | - |
| 1778092598 | 17.22° C | 62% | 1017.5 hPa | 0 mm | - | 181 W/m² | - |
| 1778092293 | 17.22° C | 62% | 1017.7 hPa | 0 mm | - | 242 W/m² | - |
| 1778091992 | 17.22° C | 61% | 1017.7 hPa | 0 mm | - | 295 W/m² | - |
| 1778091688 | 16.67° C | 63% | 1017.7 hPa | 0 mm | - | 258 W/m² | - |
| 1778091386 | 16.67° C | 63% | 1017.8 hPa | 0 mm | - | 225 W/m² | - |
| 1778091083 | 17.22° C | 61% | 1017.8 hPa | 0 mm | - | 232 W/m² | - |
| 1778090780 | 16.67° C | 62% | 1018 hPa | 0 mm | - | 246 W/m² | - |
| 1778090476 | 17.22° C | 62% | 1017.7 hPa | 0 mm | - | 284 W/m² | - |
| 1778090173 | 16.67° C | 63% | 1017.5 hPa | 0 mm | - | 244 W/m² | - |
* Rain latest hour (hover to see other rain measurements)
** Current wind speed in m/s (hover to see current wind gust speed)